Location: Berlin
(52.5170°N, 13.4000°E)
Time: 08:33:18
(UTC+02:00)

ISS - Pass Details

Date: 13 July 2018
Orbit: 402 x 408 km, 51.6° (Epoch: 16 July)

Event Time Altitude Azimuth Distance (km) Brightness Sun altitude
Exits shadow 01:58:10 28° 152° (SSE) 807 -2.8 -14.9°
Maximum altitude 01:58:11 28° 151° (SSE) 807 -2.8 -14.9°
Drops below altitude 10° 02:01:04 10° 91° (E) 1,471 -0.9 -14.9°
Sets 02:03:19 0° 79° (E) 2,336 0.4 -14.8°
